Location: The Saddle
(36.8333°N, 80.3417°W)
Time: 07:00:58
(UTC-05:00)

Vanguard 2 Rocket - Pass Details

Date: 12 December 2023
Orbit: 555 x 3309 km, 32.9° (Epoch: 02 March)

Event Time Altitude Azimuth Distance (km) Brightness Sun altitude
Rises 13:57:35 0° 255° (WSW) 5,376 11.4 25.4°
Reaches altitude 10° 14:00:34 10° 254° (WSW) 4,678 11.3 25.1°
Maximum altitude 14:15:07 76° 171° (S) 3,022 10.1 23.7°
Drops below altitude 10° 14:35:29 10° 91° (E) 6,244 10.9 21.5°
Sets 14:40:12 0° 90° (E) 7,178 11.1 21.0°
